SAVONLINNA current weather conditions

sailwx.info

Wind from 100 at 13 knots

Air temperature -1.0° C
Dewpoint -7.0° C

Last reported at 2015-Mar-27 06:20 UTC.
Time now 2015-Mar-27 08:13 UTC

Location: N 61°57' E 028°57'.
View on Google Maps.

See reports from other nearby stations

  
Tides and Currents Weather Stations Pressure Air Temp Water Temp Dewpoint Dewpoint Depression Visibility Wind Speed Wind Dir Waves Ship Positions
date/time (UTC)wind fromknots sea level pressurealtimeterstation pressurevisibilityair tempwater tempwave heightnotes
2015-Mar-27 07:20 110 17 1.0
2015-Mar-27 06:50 110 16 -0.0
2015-Mar-27 06:20 100 13 -1.0
2015-Mar-27 06:00 090 10 -2.0
2015-Mar-27 05:50 090 11 -2.0
2015-Mar-27 05:20 090 11 -3.0
2015-Mar-27 04:50 090 10 -4.0
2015-Mar-27 04:20 080 11 -4.0
2015-Mar-27 03:50 090 8 -5.0
2015-Mar-27 03:39 080 7 -5.0
2015-Mar-27 03:20 080 7 -5.0
2015-Mar-27 02:50 090 9 -5.0
2015-Mar-27 02:20 080 9 -5.0
2015-Mar-27 01:50 080 9 -5.0
2015-Mar-27 01:20 080 6 -5.0
2015-Mar-27 00:50 090 6 -6.0
2015-Mar-27 00:20 080 8 -5.0
2015-Mar-26 23:50 080 7 -5.0
2015-Mar-26 23:20 080 6 -5.0
2015-Mar-26 22:50 080 5 -5.0
2015-Mar-26 22:20 080 7 -5.0
2015-Mar-26 21:50 090 6 -6.0
2015-Mar-26 21:20 090 5 -5.0
2015-Mar-26 20:50 090 6 -6.0
2015-Mar-26 20:20 090 6 -5.0
2015-Mar-26 19:50 090 7 -5.0
2015-Mar-26 19:20 090 7 -4.0
2015-Mar-26 18:50 080 8 -3.0
2015-Mar-26 18:20 090 8 -3.0
2015-Mar-26 17:50 100 8 -3.0
2015-Mar-26 17:20 090 6 -3.0
2015-Mar-26 16:50 090 10 -2.0
2015-Mar-26 16:20 080 8 -1.0
2015-Mar-26 15:50 090 9 -0.0
2015-Mar-26 15:20 110 11 -0.0
2015-Mar-26 14:50 100 13 1.0
2015-Mar-26 14:20 110 11 2.0
2015-Mar-26 13:50 090 11 2.0
2015-Mar-26 13:20 110 10 2.0
2015-Mar-26 12:50 110 9 2.0
2015-Mar-26 12:20 080 11 2.0
2015-Mar-26 11:50 110 8 2.0
2015-Mar-26 11:40 110 10 1.0
2015-Mar-26 11:20 110 7 1.0
2015-Mar-26 10:50 110 9 1.0
2015-Mar-26 10:20 110 9 1.0
2015-Mar-26 09:50 110 8 -0.0
2015-Mar-26 09:20 110 7 -0.0
2015-Mar-26 08:50 110 7 -1.0
2015-Mar-26 08:20 110 7 -1.0
2015-Mar-26 07:50 110 6 -1.0
2015-Mar-26 07:20 090 4 -2.0
2015-Mar-26 06:50 090 2 -5.0
2015-Mar-26 06:20 050 1 -6.0
2015-Mar-26 05:50 090 1 -8.0
2015-Mar-26 05:20 -9.0
2015-Mar-26 04:50 -10.0
2015-Mar-26 04:20 -11.0
2015-Mar-26 03:50 -12.0
2015-Mar-26 03:20 -12.0
2015-Mar-26 02:50 -12.0
2015-Mar-26 02:20 -12.0
2015-Mar-26 01:50 -11.0
2015-Mar-26 01:20 070 1 -11.0
2015-Mar-26 00:50 080 1 -11.0
2015-Mar-26 00:20 -11.0
2015-Mar-25 23:50 -10.0
2015-Mar-25 23:20 -10.0
2015-Mar-25 22:50 -10.0
2015-Mar-25 22:20 -9.0
2015-Mar-25 21:50 -9.0
2015-Mar-25 21:20 -9.0
2015-Mar-25 20:50 -9.0
2015-Mar-25 20:20 -8.0
2015-Mar-25 19:50 -7.0
2015-Mar-25 19:20 -7.0
2015-Mar-25 18:50 -7.0
2015-Mar-25 18:20 080 1 -5.0
2015-Mar-25 17:50 040 1 -4.0
2015-Mar-25 17:20 030 2 -3.0
2015-Mar-25 16:50 040 3 -3.0
2015-Mar-25 16:20 050 3 -2.0
2015-Mar-25 15:50 040 3 -2.0
2015-Mar-25 15:20 030 4 -1.0
2015-Mar-25 14:50 360 4 -1.0
2015-Mar-25 14:20 020 4 -1.0
2015-Mar-25 13:50 010 2 -1.0
2015-Mar-25 13:20 350 2 -1.0
2015-Mar-25 12:50 050 4 5.4-1.0
2015-Mar-25 12:20 5.4-0.0
2015-Mar-25 11:50 5.4-0.0
2015-Mar-25 11:20 -1.0
2015-Mar-25 10:50 010 4 -1.0
2015-Mar-25 10:20 010 4 -1.0
2015-Mar-25 09:50 020 6 -2.0
2015-Mar-25 09:20 020 5 5.4-2.0
2015-Mar-25 08:50 320 4 5.4-2.0
2015-Mar-25 08:20 -3.0